Weather History for KAXA - February, 2013

Change the Weather History Date:

Friday, February 22, 2013

  Actual Average (KEST) Record (KEST)
Temperature  
Mean Temperature 15 °F 23 °F  
Max Temperature 24 °F 32 °F 59 °F (1977)
Min Temperature 6 °F 14 °F -10 °F (1963)
Degree Days  
Heating Degree Days 50 42  
Month to date heating degree days 1002  
Since 1 July heating degree days 5673  
Cooling Degree Days 0 0  
Month to date cooling degree days 0  
Year to date cooling degree days 0  
Moisture  
Dew Point 16 °F    
Average Humidity 89    
Maximum Humidity 93    
Minimum Humidity 74    
Precipitation  
Precipitation 0.01 in 0.01 in 0.30 in (1965)
Month to date precipitation 0.27  
Sea Level Pressure  
Sea Level Pressure 29.87 in    
Wind  
Wind Speed 12 mph (NNW)    
Max Wind Speed 16 mph    
Max Gust Speed 23 mph    
Visibility 6 miles    
Events Rain , Snow    
T = Trace of Precipitation, MM = Missing Value Source: NWS Daily Summary

Daily Weather History Graph

Daily Weather History Graph

Search for Another Location

Airport or City:

Trip Planner

Search our weather history database for the weather conditions in past years. The results will help you decide how hot, cold, wet, or windy it might be!

Date:

Astronomy

Feb. 22, 2013 Rise Set
Actual Time 7:03 AM CST 5:57 PM CST
Civil Twilight 6:35 AM CST 6:26 PM CST
Nautical Twilight 6:02 AM CST 6:59 PM CST
Astronomical Twilight 5:29 AM CST 7:32 PM CST
Moon 3:07 PM CST (2/22) 4:52 AM CST (2/22)
Length of Visible Light 11h 51m
Length of Day
10h 53m
Waxing Gibbous, 90% of the Moon is Illuminated
Feb 22
Waxing Gibbous
Feb 25
Full
Mar 4
Last Quarter
Mar 11
New
Mar 19
First Quarter

Hourly Weather History & Observations

Time (CST) Temp. Windchill Dew Point Humidity Pressure Visibility Wind Dir Wind Speed Gust Speed Precip Events Conditions
12:15 AM 19.4 °F 6.0 °F 17.6 °F 93% 29.90 in 0.8 mi NE 13.8 mph - N/A Snow Light Snow
12:35 AM 19.4 °F 5.5 °F 17.6 °F 93% 29.90 in 0.5 mi NE 15.0 mph 20.7 mph N/A Snow Light Snow
12:55 AM 19.4 °F 6.0 °F 17.6 °F 93% 29.89 in 1.5 mi NE 13.8 mph 23.0 mph N/A Snow Light Snow
1:15 AM 19.4 °F 5.0 °F 17.6 °F 93% 29.88 in 0.8 mi NE 16.1 mph - N/A Snow Light Snow
1:35 AM 19.4 °F - 17.6 °F 93% 29.87 in 0.2 mi North - - N/A Snow Snow
1:55 AM 19.4 °F 5.5 °F 17.6 °F 93% 29.86 in 0.2 mi NE 15.0 mph 20.7 mph 0.01 in Snow Light Snow
2:15 AM 19.4 °F 6.6 °F 17.6 °F 93% 29.86 in 0.2 mi NE 12.7 mph - N/A Snow Light Snow
2:35 AM 19.4 °F 6.0 °F 17.6 °F 93% 29.85 in 0.8 mi NE 13.8 mph - N/A Snow Light Snow
2:55 AM 19.4 °F 6.0 °F 17.6 °F 93% 29.83 in 0.5 mi NE 13.8 mph - N/A Snow Light Snow
3:15 AM 19.4 °F 7.2 °F 17.6 °F 93% 29.83 in 0.5 mi NNE 11.5 mph - N/A Snow Light Snow
3:35 AM 19.4 °F 7.2 °F 17.6 °F 93% 29.82 in 0.5 mi NNE 11.5 mph - N/A Snow Light Snow
3:55 AM 19.4 °F 6.6 °F 17.6 °F 93% 29.82 in 0.5 mi NNE 12.7 mph - N/A Snow Light Snow
4:15 AM 19.4 °F 5.5 °F 17.6 °F 93% 29.82 in 0.5 mi NNE 15.0 mph - N/A Snow Light Snow
4:35 AM 19.4 °F 6.0 °F 17.6 °F 93% 29.82 in 1.0 mi NNE 13.8 mph - N/A Snow Light Snow
4:55 AM 19.4 °F 6.6 °F 17.6 °F 93% 29.82 in 1.0 mi NNE 12.7 mph - N/A Snow Light Snow
5:15 AM 19.4 °F 5.5 °F 17.6 °F 93% 29.82 in 1.2 mi NNE 15.0 mph - N/A Snow Light Snow
5:35 AM 19.4 °F 6.0 °F 17.6 °F 93% 29.82 in 2.0 mi NNE 13.8 mph - N/A Snow Light Snow
5:55 AM 19.4 °F 6.0 °F 17.6 °F 93% 29.82 in 1.0 mi NNE 13.8 mph - N/A Snow Light Snow
6:15 AM 19.4 °F 7.2 °F 17.6 °F 93% 29.82 in 0.8 mi North 11.5 mph - N/A Snow Light Snow
6:35 AM 19.4 °F 6.6 °F 17.6 °F 93% 29.81 in 1.5 mi North 12.7 mph 18.4 mph N/A Snow Light Snow
6:55 AM 19.4 °F 8.6 °F 17.6 °F 93% 29.82 in 1.5 mi North 9.2 mph - N/A Snow Light Snow
7:35 AM 19.4 °F 7.2 °F 17.6 °F 93% 29.82 in 1.8 mi NNE 11.5 mph - N/A Snow Light Snow
7:55 AM 19.4 °F 7.2 °F 17.6 °F 93% 29.82 in 2.5 mi NNE 11.5 mph - N/A Snow Light Snow
8:15 AM 19.4 °F 7.9 °F 17.6 °F 93% 29.82 in 4.0 mi North 10.4 mph - N/A Snow Light Snow
8:35 AM 19.4 °F 8.6 °F 17.6 °F 93% 29.82 in 5.0 mi North 9.2 mph - N/A Snow Light Snow
8:55 AM 19.4 °F 8.6 °F 17.6 °F 93% 29.83 in 5.0 mi North 9.2 mph - N/A Rain Light Freezing Rain
9:15 AM 19.4 °F 6.6 °F 17.6 °F 93% 29.83 in 2.0 mi North 12.7 mph - N/A Snow Light Snow
9:35 AM 21.2 °F 10.1 °F 17.6 °F 86% 29.83 in 1.2 mi North 10.4 mph - N/A   Overcast
9:55 AM 21.2 °F 9.5 °F 19.4 °F 93% 29.84 in 0.2 mi North 11.5 mph - N/A   Overcast
10:15 AM 21.2 °F 9.5 °F 19.4 °F 93% 29.85 in 1.8 mi North 11.5 mph - N/A   Overcast
10:35 AM 21.2 °F 10.1 °F 19.4 °F 93% 29.85 in 3.0 mi North 10.4 mph - N/A Rain Light Freezing Rain
10:55 AM 21.2 °F 10.1 °F 17.6 °F 86% 29.85 in 6.0 mi North 10.4 mph - N/A Rain Light Freezing Rain
11:15 AM 21.2 °F 10.1 °F 17.6 °F 86% 29.86 in 7.0 mi North 10.4 mph - N/A   Light Freezing Rain
11:35 AM 21.2 °F 9.5 °F 17.6 °F 86% 29.86 in 7.0 mi North 11.5 mph - N/A   Light Freezing Rain
11:55 AM 23.0 °F 12.4 °F 19.4 °F 86% 29.86 in 8.0 mi North 10.4 mph - N/A   Light Freezing Rain
12:15 PM 23.0 °F 11.7 °F 19.4 °F 86% 29.86 in 9.0 mi North 11.5 mph - N/A   Light Freezing Rain
12:35 PM 23.0 °F 13.1 °F 19.4 °F 86% 29.86 in 9.0 mi NNW 9.2 mph - N/A   Light Freezing Rain
12:55 PM 23.0 °F 13.9 °F 19.4 °F 86% 29.86 in 10.0 mi North 8.1 mph - N/A   Overcast
1:15 PM 24.8 °F 16.9 °F 19.4 °F 80% 29.87 in 9.0 mi NNW 6.9 mph - N/A   Overcast
1:35 PM 24.8 °F 15.3 °F 19.4 °F 80% 29.87 in 10.0 mi NW 9.2 mph - N/A   Overcast
1:55 PM 24.8 °F 14.0 °F 17.6 °F 74% 29.87 in 10.0 mi WNW 11.5 mph 18.4 mph N/A   Overcast
2:15 PM 23.0 °F 10.6 °F 19.4 °F 86% 29.87 in 10.0 mi WNW 13.8 mph - N/A   Overcast
2:35 PM 23.0 °F 10.1 °F 17.6 °F 80% 29.87 in 10.0 mi NW 15.0 mph - N/A   Overcast
2:55 PM 24.8 °F 12.4 °F 17.6 °F 74% 29.87 in 10.0 mi NW 15.0 mph 21.9 mph N/A   Overcast
3:15 PM 23.0 °F 12.4 °F 19.4 °F 86% 29.87 in 10.0 mi NW 10.4 mph - N/A   Overcast
3:35 PM 23.0 °F 12.4 °F 19.4 °F 86% 29.88 in 10.0 mi NNW 10.4 mph - N/A   Overcast
3:55 PM 23.0 °F 13.1 °F 19.4 °F 86% 29.88 in 10.0 mi NW 9.2 mph - N/A   Mostly Cloudy
4:15 PM 23.0 °F 11.1 °F 19.4 °F 86% 29.88 in 10.0 mi NW 12.7 mph - N/A   Overcast
4:35 PM 23.0 °F 11.1 °F 19.4 °F 86% 29.89 in - NW 12.7 mph - N/A   Overcast
4:55 PM 23.0 °F 11.7 °F 19.4 °F 86% 29.89 in 10.0 mi NW 11.5 mph - N/A   Overcast
5:15 PM 23.0 °F 11.7 °F 19.4 °F 86% 29.89 in 10.0 mi NW 11.5 mph 19.6 mph N/A   Overcast
5:35 PM 21.2 °F 10.9 °F 17.6 °F 86% 29.90 in 10.0 mi WNW 9.2 mph - N/A   Overcast
5:55 PM 21.2 °F 12.6 °F 15.8 °F 80% 29.91 in 10.0 mi WNW 6.9 mph - N/A Snow Light Snow
6:15 PM 21.2 °F 11.7 °F 17.6 °F 86% 29.91 in 10.0 mi NW 8.1 mph - N/A Snow Light Snow
6:35 PM 21.2 °F 10.9 °F 17.6 °F 86% 29.91 in 10.0 mi WNW 9.2 mph - N/A   Overcast
6:55 PM 21.2 °F 11.7 °F 15.8 °F 80% 29.91 in 10.0 mi WNW 8.1 mph - N/A Snow Light Snow
7:15 PM 19.4 °F 7.9 °F 15.8 °F 86% 29.92 in 10.0 mi West 10.4 mph - N/A   Overcast
7:35 PM 17.6 °F 5.7 °F 14.0 °F 86% 29.91 in 10.0 mi West 10.4 mph - N/A Snow Light Snow
7:55 PM 14.0 °F 2.0 °F 10.4 °F 86% 29.91 in 10.0 mi West 9.2 mph - N/A   Overcast
8:15 PM 12.2 °F -1.8 °F 10.4 °F 92% 29.91 in 10.0 mi West 11.5 mph - N/A Snow Light Snow
8:35 PM 12.2 °F -1.8 °F 10.4 °F 92% 29.91 in 9.0 mi West 11.5 mph - N/A Snow Light Snow
8:55 PM 12.2 °F 0.7 °F 10.4 °F 92% 29.91 in 10.0 mi West 8.1 mph - N/A   Overcast
9:15 PM 10.4 °F -1.5 °F 8.6 °F 92% 29.91 in 10.0 mi West 8.1 mph - N/A   Overcast
9:35 PM 10.4 °F -1.5 °F 8.6 °F 92% 29.90 in 10.0 mi West 8.1 mph - N/A   Overcast
9:55 PM 8.6 °F -1.3 °F 6.8 °F 92% 29.91 in 9.0 mi WSW 5.8 mph - N/A   Overcast
10:15 PM 6.8 °F -4.8 °F 5.0 °F 92% 29.91 in 7.0 mi WSW 6.9 mph - N/A   Mostly Cloudy
10:35 PM 8.6 °F -4.7 °F 5.0 °F 85% 29.91 in 7.0 mi West 9.2 mph - N/A   Overcast
10:55 PM 8.6 °F -6.3 °F 6.8 °F 92% 29.91 in 10.0 mi West 11.5 mph - N/A Snow Light Snow
11:15 PM 10.4 °F -1.5 °F 8.6 °F 92% 29.91 in 10.0 mi West 8.1 mph - N/A Snow Light Snow
11:35 PM 10.4 °F -4.1 °F 8.6 °F 92% 29.91 in 10.0 mi West 11.5 mph - N/A Snow Light Snow
11:55 PM 10.4 °F -4.1 °F 6.8 °F 85% 29.91 in 10.0 mi West 11.5 mph - N/A Snow Light Snow